Погода в Поповке

Россия / Республика Татарстан     54°11′11″N   53°14′12″E
темп.,
°C
ветер,
м/с
пор.,
м/с
влажн.,
%
обл.,
%
осадки,
мм/ч
давл.,
гПа
погр.,
м
15 апреля, чт
чт1500:00+7ююв22815 0.0 102612
03:00+6вюв11820 0.0 102610
06:00+7юв22790 0.0 102521
09:00+13ю47590 0.0 1024353
12:00+18ю57430 0.0 1022866
15:00+19ю5636100 0.0 10211280
18:00+15ююв334987 0.0 102032
21:00+12ю225417 0.0 102010
16 апреля, пт
пт1600:00+10ю115895 0.0 102010
03:00+9ююв1163100 0.0 102010
06:00+9юв1164100 0.0 102010
09:00+14всв225072 0.0 1020281
12:00+17в234032 0.0 1020995
15:00+18всв23355 0.0 10191876
18:00+14ссв59615 0.0 1020235
21:00+10св510845 0.0 1021295
17 апреля, сб
сб1700:00+7ссв49903 0.0 1022247
03:00+5ссв49940 0.0 1022244
06:00+5ссв510880 0.0 1023315
09:00+9св68660 0.0 1023577
12:00+13св77490 0.0 10221037
15:00+13св67370 0.0 10221160
18:00+10ссв510480 0.0 1021381
21:00+6ссв411580 0.0 1022281
18 апреля, вс
вс1800:00+4ссв410660 0.0 1022222
03:00+3ссв39730 0.0 1022191
06:00+3с39730 0.0 1022277
09:00+8ссв68510 0.0 1021979
12:00+11ссв79445 0.0 10211607
15:00+10ссв10105353 0.0 10211511
18:00+5ссв811505 0.0 10241483
21:00+2ссв712460 0.0 1026850
19 апреля, пн
пн1900:000св712570 0.0 1028804
03:00−1св712620 0.0 1031728
06:00−1св711500 0.0 1034927
09:00+2всв79290 0.0 10351497
12:00+4св78270 0.0 10351691
15:00+4св67270 0.0 10361637
18:00+3св47370 0.0 1037480
21:000св22460 0.0 103824